Weather History for Kalaeloa, HI

Change the Weather History Date:

Tuesday, January 29, 2013

  Actual Average (PHNL) Record (PHNL)
Temperature  
Mean Temperature 71 °F 73 °F  
Max Temperature 78 °F 80 °F 84 °F (1995)
Min Temperature 64 °F 66 °F 56 °F (1994)
Degree Days  
Heating Degree Days 0 0  
Month to date heating degree days 0  
Since 1 July heating degree days 0  
Cooling Degree Days 6 8  
Month to date cooling degree days 234  
Year to date cooling degree days 234  
Growing Degree Days 21 (Base 50)    
Moisture  
Dew Point 64 °F    
Average Humidity 80    
Maximum Humidity 94    
Minimum Humidity 62    
Precipitation  
Precipitation 0.00 in 0.06 in 2.10 in (2002)
Month to date precipitation 2.18  
Year to date precipitation 2.18  
Snow  
Snow 0.00 in - - ()
Month to date snowfall  
Since 1 July snowfall  
Snow Depth -    
Sea Level Pressure  
Sea Level Pressure 30.00 in    
Wind  
Wind Speed 2 mph (SE)    
Max Wind Speed 9 mph    
Max Gust Speed -    
Visibility 10 miles    
Events Rain    
T = Trace of Precipitation, MM = Missing Value Source: NWS Daily Summary

Daily Weather History Graph

Daily Weather History Graph

Search for Another Location

Airport:

Trip Planner

Search our weather history database for the weather conditions in past years. The results will help you decide how hot, cold, wet, or windy it might be!

Date:

Astronomy

Jan. 29, 2013 Rise Set
Actual Time 7:10 AM HST 6:20 PM HST
Civil Twilight 6:47 AM HST 6:44 PM HST
Nautical Twilight 6:20 AM HST 7:10 PM HST
Astronomical Twilight 5:53 AM HST 7:37 PM HST
Moon 8:57 PM HST (1/29) 8:40 AM HST (1/29)
Length of Visible Light 11h 57m
Length of Day
11h 10m
Waning Gibbous, 92% of the Moon is Illuminated
Jan 29
Waning Gibbous
Feb 3
Last Quarter
Feb 9
New
Feb 17
First Quarter
Feb 25
Full

Hourly Weather History & Observations

Time (HST) Temp. Dew Point Humidity Pressure Visibility Wind Dir Wind Speed Gust Speed Precip Events Conditions
12:53 AM 66.0 °F 64.0 °F 93% 29.99 in 10.0 mi Calm Calm - N/A   Overcast
1:53 AM 64.9 °F 63.0 °F 93% 29.98 in 10.0 mi Calm Calm - N/A   Partly Cloudy
2:53 AM 64.9 °F 63.0 °F 93% 29.97 in 10.0 mi Calm Calm - N/A   Mostly Cloudy
3:53 AM 64.0 °F 62.1 °F 93% 29.96 in 10.0 mi Calm Calm - N/A   Partly Cloudy
4:53 AM 64.0 °F 62.1 °F 93% 29.97 in 10.0 mi Calm Calm - N/A   Partly Cloudy
5:53 AM 64.9 °F 62.1 °F 90% 29.98 in 10.0 mi Variable 3.5 mph - 0.00 in   Overcast
6:53 AM 64.0 °F 62.1 °F 93% 29.99 in 10.0 mi Calm Calm - N/A   Clear
7:28 AM 64.4 °F 62.6 °F 94% 29.98 in 10.0 mi NE 3.5 mph - N/A   Scattered Clouds
7:53 AM 66.0 °F 63.0 °F 90% 30.00 in 10.0 mi Calm Calm - N/A   Partly Cloudy
8:53 AM 73.0 °F 64.9 °F 76% 30.02 in 10.0 mi East 3.5 mph - N/A   Clear
9:53 AM 77.0 °F 64.0 °F 64% 30.03 in 10.0 mi Variable 3.5 mph - N/A   Partly Cloudy
10:53 AM 78.1 °F 64.0 °F 62% 30.02 in 10.0 mi SSE 6.9 mph - N/A   Partly Cloudy
11:53 AM 78.1 °F 64.9 °F 64% 30.00 in 10.0 mi SSW 6.9 mph - N/A   Clear
12:53 PM 77.0 °F 64.9 °F 66% 29.98 in 10.0 mi SSW 8.1 mph - N/A   Clear
1:53 PM 77.0 °F 64.9 °F 66% 29.96 in 10.0 mi South 8.1 mph - N/A   Scattered Clouds
2:53 PM 78.1 °F 66.9 °F 68% 29.96 in 10.0 mi SSE 8.1 mph - N/A   Scattered Clouds
3:53 PM 77.0 °F 66.0 °F 69% 29.96 in 10.0 mi SSE 9.2 mph - N/A   Partly Cloudy
4:53 PM 75.9 °F 64.9 °F 69% 29.98 in 10.0 mi SE 6.9 mph - N/A   Partly Cloudy
5:53 PM 75.0 °F 64.9 °F 71% 29.99 in 9.0 mi Calm Calm - 0.00 in Rain Light Rain
6:53 PM 71.1 °F 64.0 °F 78% 30.01 in 10.0 mi Calm Calm - 0.00 in   Mostly Cloudy
7:53 PM 69.1 °F 64.0 °F 84% 30.03 in 10.0 mi Calm Calm - N/A   Clear
8:53 PM 66.9 °F 64.0 °F 90% 30.05 in 10.0 mi Calm Calm - N/A   Clear
9:53 PM 66.0 °F 62.1 °F 87% 30.06 in 10.0 mi Calm Calm - N/A   Clear
10:53 PM 64.9 °F 60.1 °F 84% 30.06 in 10.0 mi Calm Calm - N/A   Clear
11:53 PM 64.9 °F 59.0 °F 81% 30.06 in 10.0 mi ENE 3.5 mph - N/A   Clear